Abdala puso primera en La Rioja

El comodorense se quedó con el mejor registro del segundo ensayo, justo antes de que se desarrolle la clasificación de la cuarta fecha de la Clase 2 del Turismo Nacional en La Rioja. Su coterraneo Renzo Blotta lideró el primer entrenamiento.

Comenzó la actividad del Turismo Nacional en el Autódromo Provincia de La Rioja con el primer ensayo de la clase menor. La primera referencia fue el piloto de Comodoro Rivadavia Renzo Blotta, con el Toyota Etios del equipo de Ernesto «Tito» Bessone y luego Christian Abdala (Toyota Etios) mejoró el registro para ser el más veloz antes de clasificar.

El tiempo realizado por Blotta fue de 1m21s115, en el circuito de 3.276 metros de extensión, que le permitió superar por tres décimas a Christian Abdala y por cuatro décimas a Tomás Bergallo (Fiat Argo). En el segundo ensayo, Abdala volvió a mostrarse veloz y esta vez quedó en la cima con un tiempo de 1m20s551, para quedar por encima de Juan Martín Eluchans (Toyota Etios), quien fue segundo a tres décimas. En la tercera posición se ubicó Facundo Bustos (Gol Trend), a cinco décimas. Renzo Blotta y Fernámdo Gómez Fredes (Etios) completaron el quinteto más rápido.

La actividad de la clase menor del TN continuará desde las 16.20, con la primera clasificación.

Puesto Nro Piloto Marca Vtas Tiempo Dif.
1 15 RENZO BLOTTA TOYOTA ETIOS 12 1:21.115
2 18 CHRISTIAN ABDALA TOYOTA ETIOS 12 1:21.433 0.318
3 157 TOMAS BERGALLO FIAT ARGO 15 1:21.548 0.433
4 12 FACUNDO LEANEZ TOYOTA ETIOS 15 1:21.637 0.522
5 14 FERNANDO GOMEZ FREDES TOYOTA ETIOS 15 1:21.691 0.576
6 114 MATIAS SIGNORELLI NISSAN MARCH 17 1:21.931 0.816
7 61 ALEX CONCI FIESTA KINETIC 16 1:21.965 0.850
8 7 LUCAS YEROBI FIESTA KINETIC 15 1:22.004 0.889
9 19 MARCOS FERNANDEZ NISSAN MARCH 17 1:22.007 0.892
10 29 NAZARENO BEGUIRISTAIN TOYOTA ETIOS 12 1:22.104 0.989
11 25 MARCO VERONESI TOYOTA ETIOS 13 1:22.202 1.087
12 150 JUAN MARTIN ELUCHANS TOYOTA ETIOS 12 1:22.215 1.100
13 54 FACUNDO ROTONDO TOYOTA ETIOS 13 1:22.258 1.143
14 28 SANDRO ABDALA NISSAN MARCH 15 1:22.351 1.236
15 38 MATIAS CRAVERO FIESTA KINETIC 16 1:22.393 1.278
16 45 JOSE LUIS ARRATE TOYOTA ETIOS 10 1:22.396 1.281
17 155 FRANCISCO CALO FIESTA KINETIC 16 1:22.469 1.354
18 8 FACUNDO BUSTOS VW TREND 17 1:22.562 1.447
19 11 MAXIMILIANO BESTANI TOYOTA ETIOS 17 1:22.588 1.473
20 151 BAUTISTA BUSTOS TOYOTA ETIOS 14 1:22.711 1.596
21 16 SEBASTIAN PEREZ TOYOTA ETIOS 13 1:22.734 1.619
22 144 THOMAS POZNER TOYOTA ETIOS 13 1:22.819 1.704
23 24 MARCELO GUEVARA NISSAN MARCH 16 1:23.017 1.902
24 116 ALEJANDRO TORRISI NISSAN MARCH 15 1:23.019 1.904
25 4 MIGUEL CIAURRO VW TREND 14 1:23.038 1.923
26 22 SERGIO FERNANDEZ NISSAN MARCH 14 1:23.052 1.937
27 3 JUAN I. CANELA VW TREND 11 1:23.076 1.961
28 136 MARTIN BLASIG NISSAN MARCH 14 1:23.096 1.981
29 9 ALEJO BORGIANI TOYOTA ETIOS 14 1:23.113 1.998
30 66 JOAQUIN TORRES FIAT ARGO 14 1:23.469 2.354
31 32 GABRIEL SCORDIA FIESTA KINETIC 14 1:23.476 2.361
32 23 DAMIAN KIRSTEIN PEUGEOT 208 17 1:23.559 2.444
33 21 DIEGO LEANEZ TOYOTA ETIOS 12 1:24.292 3.177
34 72 GUILLERMO TILLITU VW TREND 14 1:24.961 3.846
35 88 PABLO VILLABERDE FIESTA KINETIC 15 1:25.291 4.176
36 115 BRUNO MIGLIO NISSAN MARCH 16 1:25.817 4.702
37 99 JUAN DAMIANI TOYOTA ETIOS 14 1:26.846 5.731
38 91 INAKI BEITIA TOYOTA ETIOS 2 1:33.790 12.675
Pos Auto Piloto Marca Tiempo Dif
1 18 CHRISTIAN ABDALA TOYOTA ETIOS 1:20.551
2 150 JUAN MARTIN ELUCHANS TOYOTA ETIOS 1:20.904 0.353
3 8 FACUNDO BUSTOS VW TREND 1:21.091 0.540
4 15 RENZO BLOTTA TOYOTA ETIOS 1:21.208 0.657
5 14 FERNANDO GOMEZ FREDES TOYOTA ETIOS 1:21.227 0.676
6 12 FACUNDO LEANEZ TOYOTA ETIOS 1:21.351 0.800
7 19 MARCOS FERNANDEZ NISSAN MARCH 1:21.437 0.886
8 28 SANDRO ABDALA NISSAN MARCH 1:21.481 0.930
9 7 LUCAS YEROBI FIESTA KINETIC 1:21.498 0.947
10 144 THOMAS POZNER TOYOTA ETIOS 1:21.499 0.948
11 157 TOMAS BERGALLO FIAT ARGO 1:21.520 0.969
12 59 AGUSTIN BONOMO DS3 1:21.590 1.039
13 38 MATIAS CRAVERO FIESTA KINETIC 1:21.723 1.172
14 151 BAUTISTA BUSTOS TOYOTA ETIOS 1:21.730 1.179
15 116 ALEJANDRO TORRISI NISSAN MARCH 1:21.743 1.192
16 11 MAXIMILIANO BESTANI TOYOTA ETIOS 1:21.786 1.235
17 24 MARCELO GUEVARA NISSAN MARCH 1:21.825 1.274
18 22 SERGIO FERNANDEZ NISSAN MARCH 1:21.847 1.296
19 3 JUAN I. CANELA VW TREND 1:21.855 1.304
20 114 MATIAS SIGNORELLI NISSAN MARCH 1:21.960 1.409
21 4 MIGUEL CIAURRO VW TREND 1:21.970 1.419
22 61 ALEX CONCI FIESTA KINETIC 1:22.032 1.481
23 91 IÑAKI BEITIA TOYOTA ETIOS 1:22.109 1.558
24 25 MARCO VERONESI TOYOTA ETIOS 1:22.116 1.565
25 16 SEBASTIAN PEREZ TOYOTA ETIOS 1:22.122 1.571
26 54 FACUNDO ROTONDO TOYOTA ETIOS 1:22.211 1.660
27 45 JOSE LUIS ARRATE TOYOTA ETIOS 1:22.357 1.806
28 23 DAMIAN KIRSTEIN PEUGEOT 208 1:22.396 1.845
29 32 GABRIEL SCORDIA FIESTA KINETIC 1:22.442 1.891
30 155 FRANCISCO CALO FIESTA KINETIC 1:22.474 1.923
31 21 DIEGO LEANEZ TOYOTA ETIOS 1:22.642 2.091
32 29 NAZARENO BEGUIRISTAIN TOYOTA ETIOS 1:22.738 2.187
33 66 JOAQUIN TORRES FIAT ARGO 1:22.813 2.262
34 115 BRUNO MIGLIO NISSAN MARCH 1:22.837 2.286
35 9 ALEJO BORGIANI TOYOTA ETIOS 1:23.020 2.469
36 136 MARTIN BLASIG NISSAN MARCH 1:23.092 2.541
37 72 GUILLERMO TILLITU VW TREND 1:23.663 3.112
38 88 PABLO VILLABERDE FIESTA KINETIC 1:23.841 3.290
39 99 JUAN DAMIANI TOYOTA ETIOS 1:24.469 3.918

Fuente: Campeones